This is the latest recevied weather packets stored in our database for station/object AB1AU. If no packets are shown the sender has not sent any weather packets the latest 1 day(s).
| Time | Temp. | Humidity | Pressure | Rain* | Wind** | Luminosity | Snow |
|---|---|---|---|---|---|---|---|
| 1778080095 | 17.22° C | 72% | 1009.3 hPa | 0 mm | - | 106 W/m² | - |
| 1778076464 | 16.11° C | 73% | 1009.7 hPa | 0 mm | - | 74 W/m² | - |
| 1778075251 | 15.56° C | 72% | 1009.9 hPa | 0 mm | - | 90 W/m² | - |
| 1778072523 | 15° C | 73% | 1009.9 hPa | 0 mm | - | 159 W/m² | - |
| 1778072221 | 15° C | 73% | 1010 hPa | 0 mm | - | 104 W/m² | - |
| 1778070710 | 15° C | 74% | 1010.5 hPa | 0 mm | - | 205 W/m² | - |
| 1778070406 | 14.44° C | 75% | 1010.7 hPa | 0 mm | - | 140 W/m² | - |
| 1778070104 | 14.44° C | 75% | 1010.7 hPa | 0 mm | - | 83 W/m² | - |
| 1778067986 | 13.89° C | 76% | 1010.8 hPa | 0 mm | - | 132 W/m² | - |
| 1778067684 | 13.89° C | 76% | 1010.8 hPa | 0 mm | - | 91 W/m² | - |
| 1778067382 | 13.89° C | 77% | 1010.8 hPa | 0 mm | - | 95 W/m² | - |
| 1778067079 | 13.33° C | 77% | 1010.8 hPa | 0 mm | - | 84 W/m² | - |
| 1778066775 | 13.33° C | 78% | 1010.6 hPa | 0 mm | - | 74 W/m² | - |
| 1778066473 | 13.33° C | 78% | 1010.7 hPa | 0 mm | - | 60 W/m² | - |
| 1778065868 | 13.33° C | 78% | 1010.8 hPa | 0 mm | - | 52 W/m² | - |
| 1778064656 | 12.78° C | 79% | 1010.6 hPa | 0 mm | - | 43 W/m² | - |
| 1778064051 | 12.78° C | 80% | 1010.8 hPa | 0 mm | - | 48 W/m² | - |
| 1778062537 | 12.22° C | 82% | 1010.8 hPa | 0 mm | - | 11 W/m² | - |
| 1778062234 | 12.22° C | 83% | 1010.9 hPa | 0 mm | - | 12 W/m² | - |
| 1778061932 | 11.67° C | 83% | 1010.7 hPa | 0 mm | - | 14 W/m² | - |
| 1778061630 | 11.67° C | 83% | 1010.7 hPa | 0 mm | - | 12 W/m² | - |
| 1778061329 | 11.67° C | 83% | 1010.6 hPa | 0 mm | - | 10 W/m² | - |
| 1778060420 | 11.67° C | 83% | 1010.5 hPa | 0 mm | - | 6 W/m² | - |
| 1778059513 | 12.22° C | 82% | 1010.2 hPa | 0 mm | - | 1 W/m² | - |
| 1778059209 | 12.22° C | 81% | 1010.1 hPa | 0 mm | - | 1 W/m² | - |
* Rain latest hour (hover to see other rain measurements)
** Current wind speed in m/s (hover to see current wind gust speed)